Find KUIPER-00299

NORAD ID: 68864 Int'l Des: 2026-095A Owner: KUIP Country: US Constellation: amazon-leo operational
LEOCIRCULAR

当前视图

正在加载3D地球...

About KUIPER-00299

KUIPER-00299 (NORAD 68864) is a amazon-leo constellation satellite launched Apr 28, 2026 by KUIP of US. It operates in LEO, CIRCULAR orbit with a mass of 490.00 kg.

关于 KUIPER-00299

正在加载描述...

即将过境

Passes for default location (London). Set your location on the main map for personalized predictions.

高度历史

Loading altitude history...

两行轨道根数

1 68864U 26095A 26167.16668980 .00026256 00000-0 32036-2 0 9997
2 68864 51.9369 253.1207 0004362 341.0266 244.7722 14.83147951 5459
Epoch: Jun 16, 2026 • Age: 5 hours

当前状态

高度 636.4 km
速度 7.54 km/s
星下点 -50.53°S, 103.63°E
发射日期 Apr 28, 2026
运行时间 0.1 years
类型 internet

技术详情

分类 Payload
质量 490.00 kg
干质量 490.00 kg
总质量 490.00 kg
长度 1.80 m
直径 0.70 m
跨度 5.00 m
形状 Box + 2 pan
制造商 KUIP
平台类型 Kuiper
阶段状态 In Orbit
所有者/国家 KUIP/US

Most Searched